TimePST,TemperatureF,Dew PointF,Humidity,Sea Level PressureIn,VisibilityMPH,Wind Direction,Wind SpeedMPH,Gust SpeedMPH,PrecipitationIn,Events,Conditions,WindDirDegrees,DateUTC
12:00 AM,46.4,42.8,87,30.13,1.8,WNW,9.2,-,0.00,Rain,Light Rain,290,2013-01-29 08:00:00
12:23 AM,46.4,42.8,87,30.13,1.0,West,11.5,17.3,0.02,Rain,Light Rain,280,2013-01-29 08:23:00
12:53 AM,46.9,43.0,86,30.15,1.0,WNW,11.5,-,0.05,Rain,Light Rain,290,2013-01-29 08:53:00
1:03 AM,46.4,42.8,87,30.14,1.5,WNW,11.5,20.7,0.00,Rain,Light Rain,290,2013-01-29 09:03:00
1:19 AM,46.4,42.8,87,30.14,2.0,WNW,13.8,-,0.01,Rain,Light Rain,290,2013-01-29 09:19:00
1:26 AM,46.4,42.8,87,30.15,1.8,West,13.8,18.4,0.02,Rain,Light Rain,280,2013-01-29 09:26:00
1:34 AM,46.4,42.8,87,30.15,2.0,WNW,11.5,20.7,0.02,Rain,Light Rain,290,2013-01-29 09:34:00
1:53 AM,46.9,43.0,86,30.16,1.2,WNW,9.2,19.6,0.03,Rain,Light Rain,290,2013-01-29 09:53:00
2:02 AM,46.4,42.8,87,30.15,2.0,WNW,11.5,17.3,0.00,Rain,Light Rain,300,2013-01-29 10:02:00
2:13 AM,46.4,42.8,87,30.16,1.2,WNW,11.5,20.7,0.01,Rain,Light Rain,290,2013-01-29 10:13:00
2:39 AM,46.4,42.8,87,30.17,1.8,West,9.2,19.6,0.02,Rain,Light Rain,280,2013-01-29 10:39:00
2:53 AM,46.9,43.0,86,30.17,1.8,WNW,10.4,18.4,0.02,Rain,Light Rain,290,2013-01-29 10:53:00
3:01 AM,46.4,42.8,87,30.17,2.0,West,10.4,-,0.00,Rain,Light Rain,280,2013-01-29 11:01:00
3:10 AM,46.4,42.8,87,30.17,1.5,WNW,11.5,20.7,0.00,Rain,Light Rain,290,2013-01-29 11:10:00
3:19 AM,46.4,42.8,87,30.17,1.0,West,13.8,23.0,0.01,Rain,Light Rain,280,2013-01-29 11:19:00
3:29 AM,46.4,42.8,87,30.17,2.0,WNW,11.5,20.7,0.01,Rain,Light Rain,290,2013-01-29 11:29:00
3:37 AM,46.4,42.8,87,30.18,4.0,WNW,10.4,20.7,0.01,,Overcast,290,2013-01-29 11:37:00
3:49 AM,46.4,42.8,87,30.18,2.0,West,13.8,27.6,0.01,Rain,Light Rain,280,2013-01-29 11:49:00
3:53 AM,46.9,43.0,86,30.19,2.5,WNW,10.4,27.6,0.01,Rain,Light Rain,300,2013-01-29 11:53:00
4:01 AM,46.4,42.8,87,30.19,3.0,WNW,11.5,19.6,0.00,Rain,Light Rain,300,2013-01-29 12:01:00
4:07 AM,46.4,42.8,87,30.20,1.8,WNW,12.7,20.7,0.00,Rain,Light Rain,290,2013-01-29 12:07:00
4:36 AM,46.4,42.8,87,30.21,2.5,WNW,9.2,21.9,0.01,Rain,Light Rain,300,2013-01-29 12:36:00
4:48 AM,46.4,42.8,87,30.21,3.0,WNW,10.4,18.4,0.01,,Overcast,300,2013-01-29 12:48:00
4:53 AM,46.9,43.0,86,30.21,4.0,WNW,10.4,17.3,0.01,,Overcast,290,2013-01-29 12:53:00
5:02 AM,46.4,42.8,87,30.21,1.8,WNW,10.4,21.9,0.00,Rain,Light Rain,300,2013-01-29 13:02:00
5:08 AM,46.4,42.8,87,30.21,3.0,NW,9.2,19.6,0.00,Rain,Light Rain,310,2013-01-29 13:08:00
5:53 AM,46.9,43.0,86,30.22,3.0,WNW,4.6,18.4,0.00,,Overcast,290,2013-01-29 13:53:00
6:45 AM,46.4,42.8,87,30.23,2.5,WNW,4.6,-,N/A,,Overcast,290,2013-01-29 14:45:00
6:53 AM,46.9,43.0,86,30.24,2.5,West,6.9,-,N/A,,Overcast,270,2013-01-29 14:53:00
7:07 AM,46.4,42.8,87,30.24,1.5,Variable,5.8,-,0.00,Rain,Light Rain,0,2013-01-29 15:07:00
7:18 AM,46.4,42.8,87,30.25,3.0,WNW,8.1,18.4,0.01,,Overcast,300,2013-01-29 15:18:00
7:53 AM,46.9,43.0,86,30.26,5.0,West,3.5,-,0.01,,Overcast,270,2013-01-29 15:53:00
8:53 AM,46.9,42.1,83,30.28,4.0,WNW,4.6,-,N/A,,Haze,290,2013-01-29 16:53:00
9:26 AM,46.4,42.8,87,30.29,2.5,WNW,3.5,-,N/A,,Haze,290,2013-01-29 17:26:00
9:38 AM,48.2,42.8,82,30.29,4.0,WNW,3.5,-,N/A,,Haze,290,2013-01-29 17:38:00
9:53 AM,48.0,43.0,83,30.31,2.0,Variable,6.9,-,N/A,,Haze,0,2013-01-29 17:53:00
10:05 AM,48.2,42.8,82,30.30,3.0,WNW,6.9,-,N/A,,Haze,290,2013-01-29 18:05:00
10:53 AM,48.0,43.0,83,30.33,4.0,West,8.1,-,N/A,,Haze,280,2013-01-29 18:53:00
11:15 AM,48.2,42.8,82,30.33,2.0,West,6.9,-,N/A,,Haze,270,2013-01-29 19:15:00
11:37 AM,48.2,42.8,82,30.34,3.0,WNW,5.8,-,N/A,,Haze,290,2013-01-29 19:37:00
11:53 AM,48.0,43.0,83,30.34,4.0,West,9.2,-,N/A,,Haze,280,2013-01-29 19:53:00
12:35 PM,48.2,44.6,87,30.33,1.8,West,4.6,-,N/A,,Haze,270,2013-01-29 20:35:00
12:48 PM,48.2,44.6,87,30.33,0.8,West,6.9,-,0.00,Rain,Light Rain,270,2013-01-29 20:48:00
12:53 PM,48.0,44.1,86,30.34,0.5,West,6.9,-,0.00,Fog-Rain,Light Rain,280,2013-01-29 20:53:00
1:53 PM,48.0,44.1,86,30.35,0.5,West,4.6,-,0.02,Fog-Rain,Light Rain,260,2013-01-29 21:53:00
2:45 PM,48.2,44.6,87,30.35,1.0,West,8.1,-,0.02,,Overcast,260,2013-01-29 22:45:00
2:53 PM,48.0,44.1,86,30.35,0.8,WSW,10.4,-,0.02,,Overcast,240,2013-01-29 22:53:00
3:53 PM,48.0,44.1,86,30.36,0.5,West,10.4,-,0.03,Fog,Fog,270,2013-01-29 23:53:00
4:42 PM,46.4,44.6,93,30.35,1.2,SSW,4.6,-,0.01,,Overcast,210,2013-01-30 00:42:00
4:49 PM,46.4,44.6,93,30.35,1.8,SW,5.8,-,0.01,,Overcast,220,2013-01-30 00:49:00
4:53 PM,46.9,44.1,90,30.35,2.0,SW,4.6,-,0.01,,Overcast,220,2013-01-30 00:53:00
5:22 PM,46.4,42.8,87,30.36,1.2,SW,5.8,-,0.00,Rain,Light Rain,230,2013-01-30 01:22:00
5:34 PM,46.4,42.8,87,30.37,0.8,WSW,4.6,-,0.01,Rain,Light Rain,240,2013-01-30 01:34:00
5:53 PM,46.9,43.0,86,30.38,1.0,WSW,12.7,-,0.03,Rain,Light Rain,240,2013-01-30 01:53:00
6:06 PM,46.4,42.8,87,30.37,1.0,WSW,9.2,-,0.03,Rain,Rain,250,2013-01-30 02:06:00
6:19 PM,46.4,42.8,87,30.37,1.8,WSW,9.2,-,0.05,Rain,Light Rain,240,2013-01-30 02:19:00
6:39 PM,46.4,42.8,87,30.37,1.2,WSW,9.2,-,0.07,Rain,Light Rain,250,2013-01-30 02:39:00
6:53 PM,46.9,43.0,86,30.37,1.8,SW,6.9,-,0.09,Rain,Light Rain,220,2013-01-30 02:53:00
7:09 PM,46.4,42.8,87,30.36,2.0,SW,6.9,-,0.02,Rain,Light Rain,220,2013-01-30 03:09:00
7:45 PM,46.4,42.8,87,30.35,4.0,South,4.6,-,0.05,Rain,Light Rain,190,2013-01-30 03:45:00
7:53 PM,46.0,43.0,89,30.35,4.0,South,5.8,-,0.05,Rain,Light Rain,190,2013-01-30 03:53:00
8:05 PM,46.4,42.8,87,30.35,1.8,South,4.6,-,0.00,Rain,Light Rain,190,2013-01-30 04:05:00
8:11 PM,46.4,42.8,87,30.34,0.8,South,4.6,-,0.01,Rain,Light Rain,190,2013-01-30 04:11:00
8:27 PM,46.4,42.8,87,30.34,0.8,Variable,3.5,-,0.03,Rain,Light Rain,0,2013-01-30 04:27:00
8:44 PM,46.4,42.8,87,30.34,1.0,South,5.8,-,0.04,Rain,Light Rain,190,2013-01-30 04:44:00
8:53 PM,46.0,43.0,89,30.34,0.8,South,3.5,-,0.05,Rain,Light Rain,190,2013-01-30 04:53:00
9:11 PM,46.4,42.8,87,30.34,1.0,Calm,Calm,-,0.02,Rain,Light Rain,0,2013-01-30 05:11:00
9:53 PM,46.0,43.0,89,30.32,1.0,Calm,Calm,-,0.09,Rain,Light Rain,0,2013-01-30 05:53:00
10:06 PM,46.4,42.8,87,30.32,2.0,Calm,Calm,-,0.01,Rain,Light Rain,0,2013-01-30 06:06:00
10:21 PM,46.4,42.8,87,30.32,1.8,WSW,3.5,-,0.02,Rain,Light Rain,250,2013-01-30 06:21:00
10:30 PM,46.4,44.6,93,30.33,1.0,South,4.6,-,0.03,Rain,Light Rain,190,2013-01-30 06:30:00
10:38 PM,46.4,44.6,93,30.33,0.8,Variable,3.5,-,0.03,Rain,Light Rain,0,2013-01-30 06:38:00
10:53 PM,46.9,44.1,90,30.33,1.0,South,3.5,-,0.05,Rain,Light Rain,180,2013-01-30 06:53:00
11:37 PM,46.4,44.6,93,30.33,0.8,Calm,Calm,-,0.03,Rain,Light Rain,0,2013-01-30 07:37:00
11:53 PM,46.9,43.0,86,30.33,0.8,SE,3.5,-,0.04,Rain,Light Rain,140,2013-01-30 07:53:00